STARLINK-34943

Last updated on Tue Sep 16 2025 00:02:07 GMT+0000 (Coordinated Universal Time)

1 65366U 25190R 25258.05115829 .00204877 00000+0 19649-2 0 9994 2 65366 53.1588 267.5905 0007363 203.9117 156.1558 15.65451559 2340
UTC large
Height (km)
Speed (km/s)
/
Latitude / Longitude
Inclination (degrees)
Orbital Period (minutes)
Azimuth
Elevation
Range (km)
Doppler Factor

Next 0 passes for location: London (51.5072 / 0.1276)

Sorry there are no passes over London.